Leadville, CO

7:34 AM MST on February 22, 2018 (GMT -0700)
Lake County

Weather History for KLXV - September, 2011

Change the Weather History Date:

Tuesday, September 27, 2011

  Actual Average Record
Temperature  
Mean Temperature 48 °F -  
Max Temperature 65 °F 57 °F 72 °F (2010)
Min Temperature 31 °F 28 °F 8 °F (1996)
Degree Days  
Heating Degree Days 17 23  
Month to date heating degree days 495 506  
Since 1 July heating degree days 1012 1228  
Cooling Degree Days 0 0  
Month to date cooling degree days 0 0  
Year to date cooling degree days 0 0  
Moisture  
Dew Point 23 °F    
Average Humidity 44    
Maximum Humidity 69    
Minimum Humidity 18    
Precipitation  
Precipitation 0.00 in 0.03 in 0.27 in (2005)
Month to date precipitation 1.42 1.00  
Year to date precipitation 12.19 9.95  
Snow  
Snow 0.00 in - - ()
Month to date snowfall 0.0  
Snow Depth 0.00 in    
Sea Level Pressure  
Sea Level Pressure 30.06 in    
Wind  
Wind Speed 6 mph (NNE)    
Max Wind Speed 18 mph    
Max Gust Speed 24 mph    
Visibility 10 miles    
Events      
T = Trace of Precipitation, MM = Missing Value Source: NWS Daily Summary

Daily Weather History Graph

Daily Weather History Graph

Search for Another Location

Airport or City:

Trip Planner

Search our weather history database for the weather conditions in past years. The results will help you decide how hot, cold, wet, or windy it might be!

Date:

Astronomy

Sep. 27, 2011 Rise Set
Actual Time 6:57 AM MDT 6:54 PM MDT
Civil Twilight 6:30 AM MDT 7:21 PM MDT
Nautical Twilight 5:59 AM MDT 7:52 PM MDT
Astronomical Twilight 5:27 AM MDT 8:23 PM MDT
Moon 7:14 AM MDT (9/27) 6:47 PM MDT (9/27)
Length of Visible Light 12h 50m
Length of Day
11h 57m
New Moon, 0% of the Moon is Illuminated
Sep 27
New Moon
Oct 3
First Quarter
Oct 11
Full
Oct 19
Last Quarter
Oct 26
New

Hourly Weather History & Observations

Time (MDT) Temp. Windchill Dew Point Humidity Pressure Visibility Wind Dir Wind Speed Gust Speed Precip Events Conditions
12:53 AM 44.1 °F - 21.9 °F 42% 30.00 in 10.0 mi Calm Calm - N/A   Clear
1:53 AM 42.1 °F 40.2 °F 23.0 °F 47% 30.01 in 10.0 mi SSW 3.5 mph - N/A   Clear
2:53 AM 36.0 °F 31.1 °F 23.0 °F 59% 30.06 in 10.0 mi ENE 5.8 mph - N/A   Mostly Cloudy
3:53 AM 37.9 °F 35.5 °F 24.1 °F 57% 30.06 in 10.0 mi NE 3.5 mph - N/A   Partly Cloudy
4:53 AM 36.0 °F 33.3 °F 24.1 °F 62% 30.08 in 10.0 mi NE 3.5 mph - N/A   Clear
5:53 AM 33.1 °F 30.0 °F 24.1 °F 70% 30.11 in 10.0 mi North 3.5 mph - N/A   Scattered Clouds
6:53 AM 36.0 °F - 24.1 °F 62% 30.12 in 10.0 mi Calm Calm - N/A   Partly Cloudy
7:53 AM 39.9 °F - 25.0 °F 55% 30.10 in 10.0 mi Calm Calm - N/A   Clear
8:53 AM 46.9 °F - 27.0 °F 46% 30.09 in 10.0 mi Calm Calm - N/A   Clear
9:53 AM 52.0 °F - 26.1 °F 37% 30.08 in 10.0 mi Calm Calm - N/A   Clear
10:53 AM 59.0 °F - 23.0 °F 25% 30.02 in 10.0 mi Variable 3.5 mph - N/A   Clear
11:53 AM 61.0 °F - 19.9 °F 21% 30.03 in 10.0 mi North 11.5 mph 18.4 mph N/A   Mostly Cloudy
12:53 PM 63.0 °F - 21.0 °F 20% 30.01 in 10.0 mi NNW 17.3 mph 24.2 mph N/A   Scattered Clouds
1:53 PM 64.9 °F - 19.9 °F 18% 29.99 in 10.0 mi NNW 10.4 mph 18.4 mph N/A   Clear
2:53 PM 63.0 °F - 19.9 °F 19% 30.02 in 10.0 mi NNW 11.5 mph 18.4 mph N/A   Clear
3:53 PM 60.1 °F - 23.0 °F 24% 30.03 in 10.0 mi NNE 15.0 mph - N/A   Clear
4:53 PM 63.0 °F - 21.0 °F 20% 30.01 in 10.0 mi North 6.9 mph 16.1 mph N/A   Partly Cloudy
5:53 PM 62.1 °F - 21.0 °F 21% 30.05 in 10.0 mi North 9.2 mph - N/A   Clear
6:53 PM 57.0 °F - 23.0 °F 27% 30.07 in 10.0 mi NNE 9.2 mph - N/A   Clear
7:53 PM 48.9 °F - 23.0 °F 36% 30.11 in 10.0 mi East 5.8 mph - N/A   Clear
8:53 PM 44.1 °F 40.1 °F 21.9 °F 42% 30.11 in 10.0 mi East 6.9 mph - N/A   Clear
9:53 PM 41.0 °F 35.8 °F 21.9 °F 47% 30.10 in 10.0 mi East 8.1 mph - N/A   Clear
10:00 PM - - - N/A% - - North - - N/A   Unknown
10:53 PM 41.0 °F 36.4 °F 23.0 °F 49% 30.07 in 10.0 mi ESE 6.9 mph - N/A   Clear
11:53 PM 39.9 °F 36.7 °F 25.0 °F 55% 30.05 in 10.0 mi East 4.6 mph - N/A   Clear